Location: ??????????
(48.4699°N, 37.9573°E)
Time: 12:33:36
(UTC+00:00)

Cosmos 2227 - Pass Details

Date: 20 January 2021
Orbit: 832 x 863 km, 71.0° (Epoch: 26 February)

Event Time Altitude Azimuth Distance (km) Brightness Sun altitude
Rises 14:32:47 0° 194° (SSW) 3,371 8.0 -4.4°
Reaches altitude 10° 14:35:14 10° 190° (S) 2,444 7.1 -4.8°
Maximum altitude 14:40:44 60° 112° (ESE) 961 4.3 -5.6°
Drops below altitude 10° 14:46:19 10° 34° (NE) 2,480 6.1 -6.5°
Enters shadow 14:48:26 - 31° (NNE) 3,278 6.8 -6.8°
